Theta_e
286 281 277 276 277 278 279 279 279 280 280 279 277 277 276 276 277 278 279 281 281 278 278 278 276 276 277 278 279 280 280 282 281 281 281 281 281 282 282 283 283 282 283 286 286 286 287 287 287 287 286 287 288 287 287 286 288 287 287 288 288 288 288 289 288 289 288 287 287 287 287 286 287 288 289 288 288 288 287 287 286 285 284 282 281 283
286 281 279 278 280 279 280 280 280 280 279 279 277 276 276 275 277 280 280 281 281 280 277 277 277 276 277 278 279 279 281 281 280 280 280 281 280 280 281 282 283 283 284 284 286 286 285 285 286 286 286 289 287 288 288 286 287 287 287 287 287 288 288 288 288 289 288 288 288 286 286 286 286 286 286 286 287 287 287 286 284 283 282 281 281 282
282 279 280 280 281 280 280 281 281 280 279 278 278 276 276 277 278 279 279 279 281 279 277 277 278 277 278 278 280 280 281 280 280 281 281 281 281 281 281 281 282 283 284 283 283 284 284 285 285 285 285 286 286 286 286 286 286 287 288 287 288 288 287 288 290 291 287 288 288 287 287 286 285 286 287 286 287 286 284 283 282 282 280 280 280 280
280 280 282 282 280 280 281 280 280 280 279 277 276 275 276 277 277 277 278 278 280 279 279 276 277 277 277 278 279 280 280 280 280 281 281 281 282 282 282 283 283 283 283 284 283 284 283 284 284 284 285 285 285 286 286 286 286 287 290 287 287 288 288 288 290 292 289 290 288 287 287 287 286 286 288 285 284 283 281 280 280 280 280 280 279 280
279 282 282 281 281 280 279 280 279 278 277 277 277 275 276 277 278 277 278 279 277 280 277 276 274 274 276 277 277 279 279 281 281 281 281 281 282 282 282 283 283 283 283 283 283 284 283 284 285 285 286 285 286 285 285 286 286 289 287 287 287 287 288 288 290 288 289 288 286 286 286 285 285 284 283 282 281 280 281 280 279 279 280 280 280 279
280 282 283 280 279 279 279 279 279 277 276 275 278 278 278 278 277 277 277 276 272 276 276 277 270 271 272 276 277 278 277 280 278 278 280 281 281 281 282 283 283 284 284 284 284 283 283 284 284 284 284 285 285 286 286 286 286 286 287 287 288 288 288 288 288 288 289 286 284 284 283 282 281 280 280 279 278 278 277 277 278 279 279 279 279 279
281 282 281 279 278 278 279 278 279 278 276 273 277 278 278 278 278 278 277 277 273 274 278 277 272 268 271 276 276 275 277 278 279 276 279 280 280 279 281 282 282 283 283 282 283 283 283 284 283 284 284 285 285 287 286 286 287 287 288 287 287 288 288 288 287 286 288 285 284 283 282 281 280 278 278 278 278 277 278 278 278 278 278 278 278 278
280 280 280 279 278 278 278 278 279 277 273 276 277 279 279 278 279 278 277 277 275 275 279 275 274 269 272 273 276 275 277 276 275 277 279 279 279 278 279 280 280 281 281 282 282 282 282 282 283 284 285 284 285 285 285 286 287 287 287 287 287 287 289 287 287 285 286 285 283 282 281 282 279 278 277 277 277 278 280 277 277 277 277 278 278 278
280 280 279 279 277 278 277 279 281 279 275 277 279 280 280 279 279 278 277 277 276 275 273 274 276 272 269 273 274 275 277 277 275 275 277 280 281 281 282 282 281 281 281 282 282 283 283 284 284 285 285 285 285 286 286 287 287 286 286 287 286 286 286 285 286 286 284 286 283 281 279 277 278 279 278 278 278 277 278 276 277 277 277 277 277 277
282 281 281 280 277 277 279 279 279 281 277 281 280 280 279 279 278 278 276 277 274 271 268 272 273 268 269 272 275 275 277 275 275 277 278 279 280 280 281 281 281 281 281 281 282 282 282 283 284 284 285 285 285 285 286 287 286 286 285 287 286 285 285 285 284 283 283 282 282 279 277 276 276 277 276 276 276 276 276 276 276 276 276 276 276 277
282 286 286 280 280 281 280 279 280 280 280 280 281 280 278 276 276 275 275 273 271 265 269 273 275 274 269 272 276 277 277 274 276 276 277 277 278 280 280 280 282 281 281 282 282 282 282 283 283 284 284 284 284 284 285 285 285 285 285 284 285 284 284 284 283 282 282 281 279 278 276 276 275 276 276 275 275 275 275 275 275 275 275 276 275 276
280 280 281 281 284 282 281 281 280 280 281 281 278 277 278 278 273 274 267 267 267 262 267 273 274 274 268 271 274 276 274 275 277 277 277 277 278 279 279 281 281 281 281 282 282 282 282 284 284 284 284 284 284 284 284 284 285 285 284 284 284 284 283 283 283 282 280 279 278 277 276 276 276 276 276 274 274 275 274 274 274 275 275 274 275 275
280 281 281 281 285 281 279 279 279 278 278 278 275 276 271 265 265 269 260 269 264 266 275 273 274 271 272 274 274 274 276 276 277 279 279 278 279 279 280 281 281 281 281 282 282 281 282 283 283 283 283 283 284 284 284 285 284 284 284 284 283 283 282 282 281 280 278 277 277 276 276 276 278 276 275 274 274 275 274 274 274 274 273 274 273 274
279 279 280 280 281 282 279 277 275 277 276 275 274 271 263 262 257 261 256 260 263 269 274 274 275 272 273 275 276 277 278 279 279 278 278 279 279 280 280 280 281 281 280 281 281 281 281 282 283 283 283 283 283 284 284 285 284 284 284 283 283 282 281 281 280 278 277 276 276 276 276 276 276 275 276 274 275 275 274 274 273 273 273 273 273 273
272 275 279 279 279 281 279 278 279 278 277 277 277 276 272 263 264 265 262 267 266 269 271 271 269 265 272 275 279 277 277 277 276 277 277 278 278 278 279 279 279 280 280 279 280 282 283 284 283 283 283 283 283 284 284 284 283 282 282 282 281 281 280 280 278 277 276 276 276 276 276 276 276 276 275 275 276 274 274 274 273 273 273 273 273 273
278 275 280 281 281 280 279 280 279 278 276 276 276 274 272 270 269 267 261 262 261 263 265 269 270 272 275 278 279 278 276 278 277 277 278 280 279 278 279 280 281 281 281 281 281 282 282 282 282 282 282 282 283 284 283 283 282 282 282 281 280 280 279 278 278 276 275 275 276 275 275 275 277 277 276 275 275 274 274 273 273 273 273 273 273 273
275 277 280 279 282 280 280 280 279 280 273 278 275 269 274 276 272 265 266 265 265 262 264 265 273 273 275 277 279 278 278 278 276 277 278 279 279 277 279 280 280 280 280 281 281 281 282 282 282 282 282 282 283 283 283 283 282 282 281 280 280 279 277 277 277 275 275 275 275 275 275 274 274 274 273 273 273 273 273 273 273 273 273 273 273 273
274 275 279 280 280 281 278 279 279 279 279 276 272 276 277 274 270 270 267 259 256 263 264 267 270 271 273 270 275 277 277 277 277 276 275 277 277 278 280 280 280 281 281 281 281 281 282 282 283 283 282 282 282 283 282 283 282 281 281 279 278 278 276 275 275 275 275 274 274 274 274 274 274 274 273 273 273 273 273 273 273 273 273 272 273 273
278 275 279 280 279 280 279 281 279 281 281 278 279 279 277 268 270 266 263 263 264 260 260 266 268 270 273 274 275 275 276 277 277 277 277 279 279 279 280 280 280 280 280 281 281 282 282 282 282 282 282 282 283 283 282 282 281 280 280 280 278 277 276 275 275 275 274 274 275 275 274 273 273 274 273 273 273 273 272 272 272 272 272 272 273 273
276 272 275 279 279 278 279 276 273 274 278 276 277 280 277 274 269 266 266 264 265 262 263 264 265 269 274 272 274 276 276 276 275 276 277 278 279 279 279 280 280 281 281 281 282 282 282 282 282 282 282 283 283 282 282 281 280 279 279 278 278 276 275 274 274 274 274 274 274 274 273 273 273 273 273 273 272 272 272 272 272 272 271 272 272 271
275 276 271 277 276 279 276 273 274 275 274 274 274 271 273 271 274 274 268 267 267 259 260 260 265 268 273 275 276 277 276 276 277 278 278 279 279 279 279 280 281 281 281 281 282 282 282 282 282 282 281 282 282 281 280 280 279 279 278 277 276 275 274 274 274 274 274 274 274 273 272 273 273 272 273 272 272 272 271 272 272 271 272 272 271 271
272 273 274 270 274 273 274 278 277 275 274 274 275 275 275 271 270 269 267 268 261 267 262 260 268 271 277 277 278 277 277 276 276 278 279 279 279 279 280 280 280 281 281 281 282 281 282 282 282 281 281 281 281 280 280 279 278 277 277 276 275 275 274 274 274 274 273 273 273 272 272 272 272 272 272 272 271 272 271 271 271 271 271 270 270 270
277 269 270 272 272 276 276 277 277 276 274 274 275 275 274 272 268 261 267 267 266 268 264 261 263 270 277 277 277 276 275 277 277 277 278 279 279 279 280 280 280 280 281 282 282 282 282 282 282 281 282 281 281 280 279 278 278 277 276 276 275 274 274 274 273 274 273 273 272 272 272 272 272 272 271 271 271 271 271 271 270 271 270 270 270 270
284 268 270 267 267 273 275 273 271 274 276 270 270 268 273 274 273 271 268 267 265 265 265 264 262 272 276 276 277 277 276 276 277 276 278 279 280 280 279 280 280 281 281 281 281 282 282 282 281 281 281 281 280 280 279 278 278 277 276 275 274 274 274 274 274 273 273 272 272 272 272 271 271 271 271 270 270 270 270 270 270 270 270 270 270 269
274 273 272 266 264 265 268 271 273 272 270 271 273 274 274 274 270 266 263 263 269 266 267 267 263 263 278 278 276 278 277 277 278 279 278 279 280 279 279 280 281 281 281 282 282 283 282 282 282 282 281 281 280 279 278 278 277 276 275 275 274 274 274 273 273 273 272 272 271 271 271 271 271 270 270 270 270 270 270 270 269 270 269 269 269 269
274 272 271 273 271 268 268 267 269 270 271 274 275 275 275 274 271 271 271 264 267 264 267 264 265 275 276 276 279 277 277 279 279 279 280 279 279 280 281 281 281 281 282 282 282 283 283 282 282 281 281 280 280 279 278 277 276 276 275 274 275 273 273 273 273 272 272 271 271 271 271 271 270 270 270 270 269 269 269 269 269 269 269 269 269 269
269 271 272 270 267 270 272 272 273 278 272 272 274 273 275 275 274 271 267 265 269 262 268 271 272 276 279 280 278 278 277 278 280 281 281 281 280 280 280 281 281 282 282 283 282 282 282 282 282 282 281 280 280 278 277 276 276 275 274 274 274 274 273 273 272 272 271 271 270 270 270 270 270 270 269 269 269 269 269 268 268 268 268 269 268 268
268 271 271 271 271 276 275 273 274 278 274 272 274 275 275 274 274 273 271 271 271 268 271 272 274 272 278 279 279 279 280 280 280 280 281 280 280 281 282 280 284 282 281 281 281 281 282 282 281 281 281 280 278 277 276 276 275 274 274 273 274 273 273 273 272 271 270 270 270 270 270 270 270 269 269 269 269 268 268 268 268 268 268 268 268 268
269 272 272 272 270 273 274 275 275 273 275 274 273 274 274 275 273 273 273 275 274 272 275 274 274 274 278 279 280 280 281 281 281 281 282 281 280 280 280 280 281 281 281 281 282 281 282 282 282 281 281 280 277 276 275 275 275 274 274 274 273 273 272 272 271 270 270 270 270 270 270 270 269 269 269 268 268 268 268 268 268 268 268 268 267 268
274 268 270 273 271 274 275 274 273 275 272 273 275 275 276 274 274 275 276 275 275 276 278 277 275 276 279 280 282 283 283 280 281 280 279 280 281 280 280 280 280 281 281 282 282 282 282 282 282 282 281 279 277 276 275 275 274 273 273 273 273 272 272 271 270 270 270 270 270 270 270 269 269 268 268 268 267 267 267 267 267 267 267 267 267 267
275 271 278 268 269 268 269 273 271 273 270 270 275 275 275 275 275 275 275 275 274 274 276 276 275 276 281 281 281 282 280 278 279 279 280 280 280 280 280 280 281 281 282 282 282 283 283 282 282 281 280 279 277 276 275 274 273 273 273 272 272 272 271 271 270 270 270 269 269 269 269 268 268 267 267 267 266 266 266 266 266 266 266 266 266 266
274 271 269 267 271 269 270 269 271 267 269 269 272 272 273 272 269 272 274 276 274 275 274 274 272 275 281 279 278 278 278 278 279 279 280 282 281 280 280 281 281 282 282 282 283 283 283 282 282 281 281 279 277 276 274 274 273 272 272 272 271 271 271 270 270 269 269 269 269 269 268 267 267 266 266 266 266 266 266 266 266 266 266 266 266 266
270 269 272 267 272 265 268 267 268 267 269 272 273 273 275 275 274 275 276 276 278 277 274 272 276 279 278 279 281 279 278 278 278 279 280 280 281 280 281 282 282 282 282 282 283 283 283 282 282 281 281 278 276 275 275 274 273 272 272 271 272 271 270 270 270 268 268 268 268 267 267 266 266 266 266 266 265 266 266 265 265 265 265 265 265 266
269 268 268 268 272 266 267 267 267 271 270 270 280 278 277 275 275 276 275 277 278 279 278 279 281 280 277 277 279 280 279 281 281 280 281 282 283 283 282 282 282 282 282 282 283 283 283 282 281 281 279 278 276 275 274 273 272 272 272 271 271 270 269 268 268 267 268 268 267 267 266 266 266 265 265 265 265 265 265 265 265 265 265 265 265 265
270 268 268 266 270 269 268 272 273 269 269 277 277 276 277 276 277 278 279 278 278 279 280 280 281 280 281 280 280 280 281 281 280 281 282 282 282 282 283 283 283 282 283 283 283 282 282 281 280 278 277 276 275 274 273 272 272 271 271 271 270 270 269 268 267 267 267 267 267 266 266 266 265 265 265 265 265 265 265 264 264 265 265 265 265 265
268 268 267 271 266 267 267 265 270 272 274 277 276 277 277 276 276 277 277 278 279 279 279 279 281 282 282 280 280 280 280 281 280 281 281 283 282 283 282 283 283 282 283 284 283 283 282 281 280 279 277 276 275 273 272 271 271 271 270 270 270 269 268 268 267 267 267 267 266 266 266 265 265 265 265 264 264 264 264 264 264 264 264 265 265 266
275 269 270 270 267 270 265 266 276 276 279 278 277 277 276 276 276 278 276 279 278 279 279 279 281 281 281 281 281 280 278 278 280 283 280 281 282 282 283 284 283 283 283 284 283 283 281 281 280 279 277 275 273 272 271 271 271 270 269 269 269 268 268 267 267 266 266 266 266 266 265 265 264 264 264 264 263 263 263 263 263 264 264 264 265 265
275 272 271 272 269 265 271 269 269 268 267 273 277 280 278 277 276 277 278 278 281 278 279 280 279 281 280 280 279 278 278 280 280 281 280 279 281 282 283 283 283 282 282 283 282 281 280 278 277 276 275 273 272 272 271 271 270 269 269 269 268 268 267 267 266 266 266 266 265 265 265 265 264 264 264 263 263 263 263 263 264 264 264 264 264 264
275 273 270 269 270 267 268 268 265 267 272 276 280 280 278 276 277 279 275 274 279 279 278 280 280 280 280 280 278 280 279 275 279 281 285 282 281 280 282 283 282 282 282 281 281 281 279 278 277 275 274 273 272 271 271 270 270 269 269 268 268 267 266 266 266 266 266 265 265 265 265 264 264 263 263 263 263 262 262 263 263 263 263 264 264 264
270 266 268 271 269 265 262 266 269 267 273 279 277 278 278 276 280 279 273 272 281 279 278 279 279 279 279 279 278 279 279 275 279 283 282 281 280 280 280 282 282 283 282 280 280 281 280 277 275 274 273 272 272 271 270 270 270 269 269 268 268 267 266 266 266 266 265 265 265 265 264 264 263 263 262 262 262 262 262 262 262 262 263 263 263 263
269 269 268 271 264 269 273 265 265 273 277 279 278 278 277 278 280 272 272 278 279 277 278 280 279 280 279 278 279 279 280 283 286 285 281 280 281 282 281 280 281 281 282 281 281 281 278 277 277 275 274 273 271 270 270 270 270 269 268 268 267 267 266 266 266 265 265 264 264 264 263 263 263 262 261 261 261 261 261 261 262 262 262 262 262 263
267 265 268 264 264 268 267 270 272 273 279 278 277 278 277 279 272 269 281 279 281 279 279 280 280 279 279 280 279 281 283 283 282 281 281 281 281 281 282 281 281 280 280 280 281 279 278 276 275 273 272 271 270 270 270 270 269 269 268 267 267 267 266 266 265 264 263 263 263 262 262 261 261 261 260 259 260 259 260 261 261 261 261 261 262 262
274 272 269 267 267 264 264 264 268 271 277 279 280 278 280 276 278 279 279 280 279 279 280 279 280 280 279 279 280 282 282 282 282 282 282 281 281 282 282 282 281 281 281 280 280 279 278 276 275 273 271 270 270 270 270 269 269 268 267 267 267 266 265 264 263 263 262 262 261 260 260 260 258 257 258 258 258 259 259 260 260 260 260 261 261 262
278 274 267 266 273 271 266 269 273 279 279 281 284 280 278 283 280 280 282 285 281 279 279 279 280 281 280 281 282 281 281 281 281 281 281 281 281 281 281 280 280 280 280 280 280 280 278 278 275 272 270 270 270 269 270 270 269 268 267 267 266 265 264 263 262 261 260 259 259 258 258 257 256 256 256 256 258 258 259 258 259 260 260 261 260 260
280 280 277 275 276 277 275 278 281 277 279 283 284 284 280 283 282 279 282 283 282 282 279 280 282 281 280 281 281 281 282 282 282 282 281 282 282 282 282 281 280 280 280 280 280 279 278 279 276 272 270 269 269 269 269 270 270 267 266 266 265 264 263 261 260 259 257 257 257 256 256 256 256 256 256 256 257 258 259 259 258 259 260 260 260 260
280 280 277 281 279 279 282 283 284 281 278 280 283 284 283 281 280 280 281 282 282 283 281 283 282 281 280 280 281 281 281 282 282 282 280 281 281 281 280 280 280 280 279 279 279 277 278 276 274 271 270 269 268 268 268 268 269 268 266 265 264 263 262 259 257 257 257 255 256 256 255 256 257 257 257 257 258 256 258 257 258 258 258 258 259 260
279 278 281 278 277 280 280 280 282 285 286 282 283 285 284 283 283 282 281 282 284 283 281 281 282 283 283 280 281 282 283 282 281 281 280 281 281 281 280 280 280 280 280 280 280 276 275 272 272 270 269 269 268 268 267 267 268 268 265 263 263 262 259 257 257 256 255 255 255 254 254 254 256 258 257 256 258 257 257 258 257 257 258 258 259 262
281 280 279 282 278 279 284 281 281 281 281 281 282 283 283 284 284 283 283 284 284 283 282 283 281 281 280 281 281 281 282 281 280 281 281 281 281 281 280 280 280 280 280 280 279 276 274 274 274 271 269 270 269 268 267 267 268 266 264 263 262 259 258 256 255 255 255 254 254 254 255 255 259 258 256 256 256 257 259 258 257 256 258 259 260 262
281 282 278 278 280 281 282 284 286 286 285 287 287 285 286 287 287 285 283 283 282 282 282 281 281 283 281 283 281 281 280 281 281 281 281 282 281 280 281 281 281 280 280 279 277 275 276 274 273 272 270 271 270 269 268 267 267 265 264 263 260 259 257 256 257 256 253 254 254 255 256 255 255 255 254 256 258 257 257 257 258 259 259 259 261 261
280 281 279 279 279 282 283 285 283 281 284 283 282 284 284 284 283 283 282 281 281 281 282 282 282 280 281 281 281 281 281 282 282 281 281 281 281 281 281 281 280 280 280 279 277 274 274 273 274 272 271 271 270 269 268 267 267 265 265 263 260 259 258 257 256 255 255 255 255 255 255 255 255 254 255 255 256 258 259 262 264 264 262 262 267 268
285 286 282 282 280 283 286 286 286 288 287 288 289 286 283 281 281 282 282 283 282 282 282 281 282 281 280 280 280 281 281 282 283 281 281 281 281 281 281 280 280 280 280 277 275 272 273 274 272 270 269 270 269 269 268 267 266 265 264 263 261 259 258 257 256 255 255 256 255 256 256 255 255 254 254 254 256 254 256 258 260 265 267 269 268 267
Wind_Speed
1 12 7 1 4 5 5 3 4 2 2 4 5 6 3 3 1 2 2 3 1 2 1 1 3 3 5 6 6 5 2 1 1 4 3 2 3 3 2 2 3 4 4 3 4 5 3 4 3 3 3 4 5 4 4 3 3 3 2 3 5 4 4 4 5 4 3 3 4 2 3 4 4 5 4 5 4 5 5 6 6 7 6 6 6 7
6 13 7 2 3 3 4 5 1 5 4 5 7 6 2 2 2 0 0 3 3 1 1 1 2 3 6 5 6 4 1 5 5 4 4 4 3 3 3 4 4 5 4 4 4 3 4 4 4 4 4 4 5 6 5 3 3 3 3 3 3 3 4 4 3 3 2 1 1 2 3 3 4 5 6 5 5 5 6 6 6 6 6 6 6 6
12 8 4 5 3 0 4 6 6 6 6 3 7 4 6 2 2 3 2 4 3 2 2 1 1 4 6 6 5 4 5 4 4 5 5 5 5 4 4 5 5 4 5 5 6 5 5 4 4 4 4 4 2 4 4 3 3 3 3 3 3 3 4 4 4 3 2 2 3 3 3 4 4 2 3 3 4 5 6 5 5 5 5 5 6 6
9 5 6 5 2 5 6 8 6 8 8 5 1 1 1 1 2 1 2 4 4 2 1 2 1 4 4 4 5 7 4 4 4 5 5 5 5 6 7 6 5 5 5 6 6 6 5 4 3 3 4 4 3 4 4 3 3 3 3 3 4 4 4 4 4 3 3 3 3 4 4 5 4 5 4 3 3 4 5 6 5 5 5 5 6 7
6 2 3 3 7 7 7 8 11 7 5 3 5 4 3 1 1 1 2 4 3 1 4 3 2 4 2 3 4 4 3 4 3 3 5 5 5 4 4 5 5 6 6 6 6 5 4 3 2 3 4 4 3 3 3 2 3 3 3 3 3 4 4 4 4 4 4 4 6 5 5 4 5 3 4 4 6 6 6 7 7 8 7 7 7 8
6 4 1 4 5 6 7 8 6 2 4 3 1 2 1 0 2 3 4 5 4 2 1 2 2 2 3 4 8 7 4 5 2 4 7 6 5 5 6 7 6 5 5 7 6 5 4 3 3 4 4 3 3 3 2 2 3 2 3 3 5 4 5 5 4 4 4 5 6 7 7 8 7 8 7 8 8 8 7 6 5 5 5 5 6 6
2 4 6 3 5 5 6 5 1 1 3 4 2 2 1 1 1 2 5 2 2 1 1 1 1 2 2 4 4 3 1 6 7 3 8 6 5 4 6 6 6 6 6 4 4 5 4 2 2 4 3 2 2 3 2 2 2 2 3 4 4 4 4 4 4 5 5 6 5 5 5 4 6 7 5 5 5 5 6 5 6 5 5 4 6 6
3 7 8 7 5 3 4 7 1 2 3 1 0 2 1 3 2 1 2 2 2 2 3 4 2 1 2 3 3 2 1 5 5 4 4 3 3 4 5 5 5 5 5 5 5 4 4 3 3 4 4 3 2 3 2 2 3 4 4 4 4 4 4 4 4 6 6 6 5 5 5 6 6 5 7 6 6 5 5 6 6 6 6 6 5 6
3 4 5 5 3 6 5 1 2 1 3 2 1 1 1 1 1 1 2 2 0 1 5 5 2 1 3 5 2 1 1 3 4 3 2 2 1 1 1 2 2 4 4 4 4 4 3 3 3 3 3 3 3 2 1 1 2 3 4 4 4 5 4 4 5 5 6 6 5 5 5 6 5 5 6 5 5 6 6 7 6 6 6 6 6 6
1 1 1 2 3 4 3 2 1 1 3 1 2 1 2 2 2 2 3 4 4 3 3 4 1 1 5 4 3 1 1 5 5 4 4 4 3 3 3 3 4 4 4 4 5 4 4 4 4 3 3 3 2 2 2 1 3 4 4 4 4 4 4 4 5 6 6 6 6 6 6 6 7 6 5 5 6 6 6 7 7 7 7 7 7 7
0 3 4 4 2 1 2 2 1 0 1 2 3 2 2 4 3 2 5 2 3 1 4 1 0 1 2 3 6 4 4 4 4 3 4 4 5 6 6 5 5 4 4 4 4 3 4 5 4 4 3 3 2 2 2 3 3 3 3 3 5 3 4 4 5 5 6 5 5 6 6 6 6 7 6 7 7 6 7 7 7 7 7 6 6 6
2 1 1 1 0 2 0 0 3 1 1 2 1 2 2 1 6 2 4 4 1 4 3 2 0 1 0 4 5 7 3 3 5 4 4 5 5 5 4 4 5 5 5 4 4 4 3 4 4 2 2 2 2 2 3 2 2 3 3 3 4 5 5 5 5 6 6 6 6 5 5 6 6 6 6 7 7 7 7 7 8 7 7 7 7 6
3 3 2 5 1 5 2 2 1 3 5 5 5 5 3 3 5 2 4 2 1 2 0 1 2 1 5 7 2 3 6 5 5 5 6 5 5 6 6 6 5 4 5 4 4 4 4 4 4 4 3 2 1 1 1 1 1 2 3 4 5 4 4 5 5 6 6 6 6 6 6 5 6 6 6 6 6 6 7 7 7 8 8 7 8 7
2 2 5 4 3 1 2 2 2 1 3 4 1 2 4 3 3 1 3 2 4 6 3 0 1 2 4 7 5 5 7 8 7 7 5 5 5 5 5 5 5 5 4 4 4 4 4 5 4 3 3 2 1 0 0 1 2 3 3 4 5 3 4 4 5 6 6 6 5 5 5 6 5 5 5 5 6 7 6 6 7 7 7 7 7 8
1 2 3 3 1 3 3 3 0 0 1 0 1 1 3 6 2 1 1 1 2 6 6 4 1 3 2 3 1 8 4 4 4 4 4 4 5 4 5 5 5 4 4 3 3 4 4 5 4 4 3 2 1 1 0 1 2 3 3 4 4 4 4 5 5 5 6 5 5 5 5 5 5 5 5 5 5 6 7 7 7 6 6 7 7 7
1 2 1 1 1 1 2 0 1 1 0 1 1 3 6 0 3 1 3 2 2 3 6 1 3 3 3 1 4 1 2 4 4 5 4 6 5 4 4 4 4 4 4 4 4 4 4 4 4 3 3 2 2 1 0 2 2 4 3 3 3 4 4 4 5 5 5 5 5 4 5 6 5 5 4 5 5 6 6 6 6 7 6 6 7 6
1 1 1 6 2 1 1 0 1 1 1 0 1 0 2 2 7 5 1 1 1 3 5 1 7 4 7 2 1 2 3 5 4 5 5 6 6 3 4 5 5 5 4 4 4 4 4 4 3 3 3 2 2 1 1 2 3 4 4 4 4 4 4 4 4 4 4 4 4 5 5 5 5 5 5 6 6 7 6 6 6 6 6 6 6 7
2 2 1 0 0 1 1 1 0 0 0 1 1 2 1 2 3 3 1 2 4 1 4 2 2 7 5 4 1 2 3 6 5 5 4 5 5 5 7 5 5 5 5 4 5 5 5 4 4 4 3 3 2 1 3 3 2 3 4 4 4 4 4 3 4 4 4 4 4 4 5 5 5 5 5 5 6 6 6 6 6 6 7 7 7 6
1 1 1 0 1 4 3 0 2 0 0 1 0 2 1 0 0 4 3 2 2 3 5 7 4 6 4 6 1 3 3 5 6 5 4 6 6 6 6 7 7 5 5 5 4 4 4 4 4 3 3 1 0 1 4 3 3 3 3 3 4 4 3 3 3 3 3 3 3 3 4 4 5 5 5 5 6 6 6 7 7 7 7 7 7 7
1 1 2 0 1 2 2 3 1 3 1 0 1 1 0 1 0 1 1 3 5 2 5 7 4 3 5 3 6 4 5 6 4 4 5 7 7 7 6 6 6 6 5 5 5 5 4 5 4 4 3 0 4 4 3 3 3 3 2 3 3 3 3 3 4 3 4 4 3 4 4 4 4 5 5 6 6 6 7 7 7 7 7 7 7 7
0 0 0 1 2 1 1 2 2 1 0 3 2 2 1 1 1 3 1 1 3 3 2 1 7 6 5 5 6 6 5 6 5 5 6 6 7 7 7 7 6 6 5 5 5 5 5 5 4 4 1 2 3 3 3 3 4 2 2 3 3 4 3 4 3 3 3 3 4 4 5 6 6 7 6 6 6 6 6 6 7 7 6 6 7 7
1 1 1 2 2 0 1 0 1 2 3 1 0 1 2 1 0 0 4 2 2 2 2 2 8 8 10 2 7 6 6 4 6 5 5 6 7 7 7 7 7 6 6 5 5 5 5 5 5 3 1 3 4 4 4 3 3 3 3 3 3 3 3 3 4 3 4 3 3 4 5 5 5 5 6 6 6 7 7 7 7 7 7 7 7 6
0 2 2 2 1 1 0 0 0 2 2 1 2 2 1 1 3 2 1 2 1 1 4 2 0 10 6 4 5 4 4 5 4 2 4 6 7 7 8 7 7 6 7 6 5 5 5 5 5 2 2 4 4 4 4 3 3 3 3 3 3 3 3 2 3 3 3 3 3 4 4 4 5 6 6 7 6 7 8 7 7 7 7 7 7 6
3 1 1 3 3 3 1 1 1 3 0 1 1 0 0 1 1 2 2 4 3 0 1 1 2 10 6 2 5 5 4 4 5 4 5 5 6 7 7 7 6 5 5 5 5 5 6 4 4 1 3 4 3 4 3 3 2 3 3 3 3 3 3 3 3 3 3 3 4 3 4 5 6 7 7 7 6 8 7 7 7 7 7 7 6 7
0 0 2 1 2 2 1 1 0 0 1 1 2 2 2 2 4 2 3 1 1 7 6 7 5 5 2 1 2 1 2 4 5 5 2 5 7 6 6 6 5 5 5 6 5 5 5 5 4 2 3 4 4 3 3 3 3 3 3 3 3 2 2 2 2 3 3 3 4 4 5 5 6 7 7 7 7 8 7 7 7 7 8 7 7 7
0 1 1 0 1 1 3 3 2 2 3 3 0 1 1 5 7 1 1 2 1 2 3 2 7 10 5 4 4 4 4 6 6 5 6 5 7 8 6 6 6 4 6 5 6 5 6 5 3 2 3 3 3 4 3 3 3 3 3 3 2 2 2 2 2 2 3 3 4 4 5 6 6 7 8 8 7 8 7 8 7 8 7 7 8 8
1 0 1 3 3 5 4 2 1 2 1 1 2 4 4 2 2 4 5 3 5 3 6 10 7 9 15 10 4 5 4 6 10 9 8 7 5 5 6 6 6 5 5 5 5 6 5 5 4 3 3 3 3 3 3 3 3 2 3 3 2 2 2 2 2 3 3 3 4 4 5 6 6 6 7 7 7 7 7 7 7 8 8 7 8 8
2 1 2 2 5 6 3 6 3 3 4 4 3 5 6 6 6 7 7 7 6 6 9 6 3 2 13 9 7 7 8 7 7 6 7 6 6 6 6 5 6 5 5 3 4 5 6 6 4 3 4 3 3 3 3 2 2 2 3 3 2 2 2 2 2 2 3 3 4 5 5 5 5 5 6 7 6 6 7 7 7 7 7 7 8 8
2 1 0 1 4 7 7 6 2 1 4 4 5 5 7 8 7 10 9 7 7 6 12 2 2 4 12 8 10 11 9 8 9 10 8 6 7 8 6 6 6 6 5 5 6 5 5 5 4 3 4 4 4 4 3 3 2 2 2 2 2 1 1 1 2 2 3 3 4 5 5 5 4 5 6 7 7 7 8 8 8 7 7 7 7 6
2 1 2 1 4 7 8 2 2 7 2 2 8 9 8 9 14 14 12 6 10 12 11 10 7 15 17 16 16 16 9 6 7 5 5 7 8 6 5 6 6 6 5 6 7 5 5 5 4 4 3 4 5 4 3 2 2 2 2 1 1 1 1 1 2 3 3 4 4 4 5 5 5 6 6 7 8 8 7 7 7 7 7 7 6 6
1 1 3 1 2 5 2 1 1 4 4 5 7 7 7 7 7 11 6 6 5 10 15 14 13 18 21 8 9 10 5 4 4 6 7 7 6 6 6 6 7 6 6 7 6 6 4 4 4 2 3 5 5 5 4 3 3 2 2 1 1 1 0 1 2 3 3 4 4 4 5 6 6 6 6 6 6 7 7 8 7 7 7 6 6 7
0 2 2 1 3 5 2 0 1 2 3 6 10 7 7 6 8 6 8 8 7 12 1 0 5 11 13 2 4 5 4 4 5 6 7 7 6 5 6 8 6 6 6 6 6 4 5 4 3 4 5 5 5 5 4 3 3 2 1 1 1 1 0 1 2 2 3 3 4 4 5 6 6 6 6 6 7 7 6 6 6 7 7 7 8 8
1 2 0 0 1 5 3 1 7 6 3 4 7 7 13 10 5 1 4 3 10 4 3 6 11 5 3 2 1 2 2 4 5 5 6 7 7 6 7 8 7 6 6 6 5 5 5 5 4 4 3 4 5 5 4 4 3 2 1 1 1 1 1 1 2 2 3 3 3 4 4 5 6 6 6 6 7 6 6 6 6 7 8 8 7 6
1 2 0 1 1 4 6 6 1 1 2 3 1 5 9 8 13 10 7 12 11 11 9 8 12 4 2 3 4 7 5 6 4 4 4 6 8 9 8 6 6 6 6 5 5 5 5 4 4 2 3 4 5 4 4 3 4 2 2 2 2 2 1 2 2 2 3 3 3 3 4 5 5 6 6 6 6 6 6 7 7 7 6 7 7 7
2 1 1 1 1 4 6 7 2 1 4 1 0 2 2 1 7 13 10 8 7 13 14 14 16 14 14 6 7 9 8 8 5 8 10 8 7 8 9 8 6 6 5 5 4 4 4 4 3 2 3 5 6 6 5 4 3 3 2 2 2 1 1 2 2 3 3 3 3 3 4 4 5 6 6 6 6 6 6 6 7 7 7 6 7 8
3 3 2 0 0 1 2 3 2 3 2 2 2 0 2 2 2 1 8 12 14 14 16 16 20 17 11 7 7 7 6 8 7 6 9 10 6 7 6 7 6 4 4 4 4 4 4 3 4 5 5 4 6 5 4 4 3 3 1 1 2 1 1 2 2 2 3 3 3 3 4 4 5 5 5 6 6 6 6 5 5 7 8 8 7 6
6 3 2 2 0 1 1 1 9 8 7 1 1 2 5 3 5 2 2 7 8 8 12 12 15 11 9 8 8 6 4 3 5 8 4 7 6 6 8 7 6 4 4 5 3 4 3 3 3 3 5 5 5 6 4 4 3 3 3 2 1 2 1 2 2 2 3 3 3 3 3 4 4 5 6 6 6 6 6 6 7 6 6 7 8 8
1 1 1 1 2 2 0 6 6 6 2 5 3 1 1 1 4 2 3 8 3 4 8 9 8 8 7 8 6 5 2 4 8 7 5 5 5 5 4 6 5 4 4 4 3 1 1 2 3 4 6 7 5 4 5 4 4 3 3 3 1 1 1 2 2 2 2 3 3 3 3 3 4 4 6 5 5 6 6 6 5 6 5 5 8 9
4 5 3 3 1 2 1 1 2 2 5 3 2 2 2 3 5 3 3 5 5 2 6 9 8 8 7 7 4 1 2 3 7 9 9 5 6 4 5 6 5 4 4 4 4 4 4 4 4 5 5 6 6 4 5 4 4 4 3 3 2 2 1 0 1 2 2 3 2 2 2 3 3 3 5 6 5 5 6 6 6 6 6 5 5 6
4 3 1 0 1 2 2 1 5 5 5 1 4 2 4 3 3 2 5 4 3 3 6 8 8 8 7 6 2 1 2 5 8 9 4 4 3 4 2 5 5 6 6 4 3 4 3 5 6 5 5 6 6 6 5 4 4 3 3 3 3 2 2 1 1 1 1 2 2 2 2 2 3 3 4 6 6 5 6 6 6 6 6 6 5 6
0 0 1 6 3 4 4 5 4 8 6 4 4 3 3 3 1 2 3 4 3 4 6 8 7 8 5 3 5 3 8 9 9 8 2 3 4 6 4 4 7 6 6 5 4 3 4 5 5 6 7 5 6 6 5 4 4 3 3 3 3 3 3 2 0 1 1 2 2 2 2 2 2 3 3 5 6 5 6 6 5 6 6 7 6 5
1 2 0 4 2 4 5 4 8 8 9 5 0 6 3 1 0 3 6 2 6 5 6 8 7 6 5 6 6 8 8 7 7 6 6 6 5 6 6 7 6 5 4 3 4 4 3 3 3 3 3 4 7 6 5 5 5 4 4 3 4 4 3 2 1 1 1 1 2 2 2 2 2 2 3 4 5 5 5 5 5 4 5 5 5 6
8 6 6 5 3 2 2 1 5 4 1 6 11 3 0 2 7 4 1 2 4 3 7 6 7 5 6 5 7 9 9 9 7 7 6 6 5 7 8 7 6 6 4 3 3 4 4 4 5 5 5 5 5 6 5 6 5 5 4 5 4 4 3 3 2 1 1 1 2 3 3 2 2 3 2 3 4 5 5 4 5 5 4 5 6 6
5 1 2 4 7 7 5 5 7 8 3 8 11 5 7 12 2 4 2 1 2 4 5 5 6 7 6 6 7 7 8 8 8 6 6 6 6 6 6 6 5 5 5 5 6 4 6 5 4 4 4 5 5 5 6 7 6 5 5 5 4 4 4 3 2 1 1 1 2 3 3 3 3 2 2 2 4 5 5 4 5 5 4 4 4 6
11 7 7 3 6 7 10 11 10 3 5 11 10 5 4 7 1 2 1 2 2 5 5 3 5 5 7 7 7 7 7 6 7 6 5 7 7 7 7 6 5 6 6 6 6 4 6 7 7 6 5 5 6 5 6 6 7 5 6 3 6 5 5 3 2 1 0 1 3 3 4 4 4 3 2 3 2 4 6 5 4 6 6 6 5 5
2 1 1 1 7 6 9 11 7 3 3 7 10 10 8 4 3 2 5 6 5 6 6 5 4 5 5 6 5 5 6 7 7 6 5 6 7 8 5 5 6 6 6 5 4 4 5 4 4 6 7 5 6 6 5 5 5 7 5 4 5 5 5 4 3 2 0 1 2 3 4 5 5 3 3 3 3 3 3 4 4 4 5 4 5 5
4 3 2 4 2 2 9 1 8 15 10 6 10 10 8 7 9 6 5 8 10 6 5 6 7 6 7 5 7 7 8 6 6 7 6 7 8 7 6 6 7 7 6 6 6 3 4 5 5 6 6 8 7 7 6 5 5 4 4 6 6 5 4 4 3 2 1 1 1 2 3 4 4 5 3 3 5 5 5 3 3 3 3 4 4 4
4 4 3 8 3 6 12 3 7 4 5 5 7 7 8 9 9 8 10 9 8 5 5 7 4 6 4 5 7 7 9 7 5 8 7 7 7 5 5 6 7 7 6 6 4 5 4 6 7 7 7 9 8 8 7 5 6 5 5 4 5 5 5 4 4 4 3 2 1 1 1 3 4 5 6 3 2 5 7 5 2 2 4 5 5 5
3 6 6 4 6 9 9 14 18 12 10 15 14 10 13 12 9 7 7 8 7 8 9 6 6 7 5 9 5 5 6 8 7 9 9 7 5 5 6 7 7 7 6 5 4 6 8 7 7 8 8 9 7 8 7 7 6 6 8 7 6 6 6 5 4 3 2 2 1 1 0 1 2 3 4 6 5 2 4 6 6 5 5 4 4 4
6 8 3 2 5 11 11 11 4 1 7 5 4 9 8 8 6 8 5 4 6 7 8 6 6 5 7 6 6 5 7 8 7 7 8 7 6 7 7 7 6 6 7 6 4 5 5 6 8 8 9 7 7 8 8 7 7 8 6 7 7 6 6 5 4 3 3 2 2 1 1 1 1 2 3 3 5 8 6 4 8 7 4 6 6 8
12 14 9 9 7 12 8 8 8 8 7 7 6 5 5 3 4 5 7 8 7 8 6 5 5 2 4 8 7 7 8 9 10 6 6 5 8 8 7 6 6 7 7 5 3 4 6 7 6 5 6 7 7 7 8 7 7 9 6 7 7 7 6 6 5 4 3 3 3 2 1 1 1 1 1 2 2 3 6 10 6 6 9 8 7 10
Wind_Direction
343 68 58 27 319 305 299 289 238 240 135 78 89 89 107 108 339 301 303 272 113 69 15 148 153 203 235 234 244 246 305 299 304 277 273 270 254 248 250 237 247 258 236 253 276 275 266 283 288 288 311 329 327 327 5 353 352 355 350 7 1 326 339 356 355 345 353 354 336 338 359 336 328 332 339 341 343 351 353 358 3 2 4 358 354 355
54 73 13 302 279 284 307 323 117 76 88 112 102 95 56 68 89 251 289 335 331 128 318 29 122 247 237 251 251 268 323 266 252 256 262 247 252 254 239 249 249 243 298 317 313 301 323 324 326 342 346 356 10 328 337 332 321 314 351 23 328 329 342 343 351 332 336 356 341 300 319 324 321 340 346 339 347 350 358 360 4 1 359 356 352 354
51 62 323 310 277 195 41 33 55 88 96 29 109 143 83 23 252 286 301 334 335 81 271 281 194 257 260 254 266 237 216 238 221 201 209 199 238 241 247 253 270 298 279 304 282 280 278 309 318 345 333 320 335 309 322 308 327 348 357 336 329 323 340 340 344 9 4 324 351 16 332 346 323 311 340 338 338 355 356 356 1 354 356 354 354 358
62 355 332 333 37 85 40 37 48 70 54 56 32 56 117 259 62 311 294 347 346 74 238 198 107 296 302 288 272 259 221 255 248 219 236 198 219 238 238 227 249 267 278 277 273 274 300 302 290 334 329 308 326 353 350 340 335 322 334 331 331 333 346 357 350 7 1 354 4 3 350 334 347 320 332 340 342 352 347 353 356 356 358 359 360 358
118 277 318 50 43 76 82 37 39 55 60 11 79 91 85 41 43 158 283 319 307 27 83 73 40 326 302 295 307 291 294 296 303 321 285 275 244 258 294 297 239 246 258 264 283 286 291 319 317 295 285 288 357 329 322 305 312 313 305 309 324 350 358 360 6 6 4 13 9 357 345 345 341 340 349 349 350 355 352 353 357 355 359 1 360 354
39 350 36 44 38 38 71 46 30 78 67 347 350 126 149 154 343 336 331 28 18 335 317 115 25 296 280 265 256 273 330 288 314 344 283 267 291 308 295 275 286 273 244 239 250 256 273 273 296 312 299 316 337 314 304 276 277 290 311 331 3 12 10 15 16 10 28 28 17 1 358 354 353 348 353 357 347 346 349 349 338 343 352 357 352 347
107 352 56 85 80 50 67 102 299 129 147 86 320 138 134 144 72 34 359 56 348 85 354 61 134 268 328 286 262 281 330 285 308 291 271 289 284 288 268 271 268 271 291 290 269 267 278 287 304 299 298 295 308 297 301 307 337 338 337 12 33 23 27 22 29 23 25 20 14 6 4 350 351 342 339 340 337 341 337 343 343 341 343 349 347 343
30 2 29 32 47 60 72 41 310 117 98 55 236 120 94 59 54 27 87 115 234 270 273 54 106 173 304 287 252 280 299 292 317 326 327 315 285 260 263 264 258 259 250 253 266 271 264 262 246 263 281 286 266 284 315 346 357 8 10 41 34 31 36 31 24 31 21 17 7 8 5 357 356 346 333 338 339 344 337 342 343 341 340 343 344 342
80 350 19 11 41 49 58 216 301 125 109 191 219 193 82 107 147 96 77 41 191 33 292 331 355 11 269 263 312 343 275 299 295 277 282 299 304 286 273 268 256 243 237 227 244 252 256 249 262 264 289 282 290 308 337 334 340 16 34 47 41 38 33 23 27 25 16 17 16 15 3 355 351 343 339 338 343 342 340 341 340 341 340 340 341 344
347 124 253 133 84 19 261 276 240 92 73 244 179 90 80 94 75 86 64 46 337 59 295 296 22 159 284 276 328 331 251 270 255 248 240 243 256 269 266 274 271 275 269 253 234 260 273 255 254 268 281 292 281 318 315 327 20 31 42 46 45 32 30 22 23 20 19 21 19 15 6 360 347 348 342 352 347 344 343 340 338 338 342 341 340 344
194 313 162 88 70 256 255 264 236 270 103 137 83 72 2 32 37 23 62 78 51 14 258 234 353 129 286 262 213 168 219 195 232 291 275 285 290 271 258 252 265 270 283 289 306 273 258 263 272 305 298 279 320 345 355 16 27 42 56 54 57 29 28 24 19 23 26 21 22 16 4 1 354 351 352 352 349 345 345 343 338 340 338 337 339 341
7 353 52 262 69 338 109 31 16 30 31 111 70 104 82 345 6 35 347 33 86 279 259 270 142 107 258 297 284 236 272 204 164 205 235 257 258 258 273 278 268 266 270 299 314 307 312 327 318 335 318 322 314 346 5 9 27 54 52 59 60 30 23 16 18 29 27 23 16 14 11 5 359 356 357 353 344 343 341 339 337 336 336 339 340 342
20 25 284 325 228 45 13 78 331 11 9 69 63 36 108 275 33 306 12 349 217 209 191 25 5 19 242 219 232 270 233 246 218 195 206 221 247 260 272 271 277 288 301 300 291 295 301 286 283 309 303 323 340 340 323 8 49 58 56 60 63 30 11 17 22 33 24 21 13 11 11 3 357 357 358 346 341 340 340 336 336 339 339 338 340 344
278 285 7 320 6 42 101 129 325 47 355 56 89 124 73 42 36 274 272 231 309 296 264 20 307 235 249 292 221 224 234 214 213 220 216 201 220 241 264 287 300 300 289 274 274 279 275 273 275 271 271 277 278 299 352 27 69 64 66 58 67 28 13 20 32 27 24 17 9 11 9 357 353 350 353 342 340 340 337 336 334 336 337 336 337 335
60 356 323 28 11 359 52 79 144 243 351 225 218 133 159 141 156 237 238 286 235 238 280 283 44 238 4 244 255 225 266 301 278 275 264 260 254 265 272 277 285 288 289 268 267 262 264 276 272 275 279 278 267 246 193 92 81 81 67 63 54 27 17 30 32 26 21 12 4 8 2 353 353 345 348 341 341 340 338 337 335 333 335 334 332 332
77 214 293 283 238 47 21 320 126 96 336 265 177 101 57 225 150 141 206 162 280 335 336 232 209 179 186 254 284 243 316 314 335 312 333 298 293 331 329 307 287 284 278 284 282 283 278 262 279 285 275 266 251 233 180 89 103 90 90 85 71 55 35 36 30 26 22 7 357 2 357 354 349 346 343 341 343 341 340 333 331 329 330 328 327 325
21 30 277 317 34 76 322 122 5 173 115 220 56 90 171 148 97 92 67 64 81 52 254 205 314 300 300 338 311 355 352 297 332 305 301 278 286 330 297 277 272 264 271 277 267 261 278 304 292 252 258 263 257 240 134 122 121 114 97 73 51 43 49 38 32 30 20 360 360 354 355 350 347 347 346 342 338 337 335 331 328 328 323 322 326 325
146 231 307 37 6 11 296 149 242 200 206 22 56 218 110 112 122 126 175 335 61 120 263 32 260 308 27 299 320 328 317 283 296 292 290 299 304 299 266 267 269 269 262 269 272 266 261 260 264 279 266 245 223 173 124 122 117 110 105 89 75 59 47 26 32 28 13 0 356 353 351 344 344 344 341 340 338 335 332 331 331 328 330 332 327 328
92 51 288 27 225 272 357 321 341 347 83 139 16 206 76 266 308 329 89 10 345 327 291 311 297 253 189 255 333 273 230 266 267 283 318 290 289 265 276 284 284 283 293 286 281 291 295 282 279 264 263 275 180 120 132 126 113 94 80 84 90 87 81 63 45 26 9 5 359 356 346 339 341 347 345 338 336 335 334 335 333 332 328 325 332 335
20 143 298 284 146 316 355 59 249 298 322 231 18 171 321 116 158 85 197 171 121 258 32 295 31 261 211 222 193 233 217 234 264 308 270 259 260 268 265 268 275 286 286 284 285 280 268 268 258 258 255 228 147 139 141 129 104 80 71 66 67 74 61 47 36 19 8 357 4 351 346 346 346 346 343 340 337 336 337 332 331 332 331 335 334 335
162 198 220 280 304 355 250 6 157 149 11 330 25 335 344 30 217 112 14 96 171 173 177 228 329 282 265 212 170 206 211 218 203 236 258 266 270 263 255 260 269 268 272 273 270 275 274 269 272 266 263 145 109 120 122 116 109 117 69 64 60 61 36 38 23 18 3 359 0 357 357 349 347 343 340 339 337 337 334 333 333 332 332 333 336 337
73 17 225 312 15 360 214 213 163 162 154 161 155 245 170 93 18 314 275 8 56 86 217 125 262 272 273 181 196 183 220 209 226 210 250 268 272 270 272 266 248 264 267 259 269 267 270 270 268 277 74 115 119 123 120 126 111 75 63 69 64 58 41 28 15 13 359 360 356 360 354 349 340 337 337 338 339 340 338 334 336 333 339 338 334 337
119 152 93 264 199 219 255 169 90 120 119 168 156 284 102 104 99 88 4 281 3 273 102 149 135 274 243 211 213 209 203 217 241 189 238 270 273 276 271 267 272 242 252 267 263 268 263 262 262 276 152 160 156 154 140 131 109 97 74 62 57 60 28 30 10 1 360 358 356 356 353 343 343 338 340 342 342 343 339 337 336 339 339 337 335 335
105 67 20 292 312 305 338 243 50 39 117 21 266 206 61 276 168 169 181 196 136 277 82 8 230 252 283 224 227 236 245 249 258 217 248 276 282 277 271 277 273 284 268 259 268 267 267 276 282 219 141 149 157 156 145 139 124 87 75 73 70 56 32 17 4 359 357 355 357 354 352 352 341 343 343 346 346 341 339 337 338 338 338 337 335 338
57 311 116 342 358 335 340 352 354 326 82 173 219 210 172 93 74 158 117 84 9 223 177 129 236 281 270 332 297 319 356 326 300 291 205 276 285 270 268 266 264 266 280 286 285 284 298 302 285 265 187 176 172 148 143 135 113 96 80 75 72 64 43 14 357 359 351 354 358 357 358 351 348 344 344 346 345 341 339 341 340 340 340 339 340 342
110 210 100 45 111 18 314 318 284 298 244 223 180 143 199 140 146 147 253 29 210 278 126 179 254 253 269 312 314 320 338 314 291 267 275 227 249 270 273 263 265 270 269 280 291 304 299 290 289 279 211 190 172 157 147 139 118 104 98 89 82 66 28 1 360 354 354 358 2 359 357 352 350 346 343 344 344 343 341 341 341 339 341 342 340 343
143 27 154 157 153 191 202 210 260 102 51 196 242 170 199 168 121 104 101 107 211 204 195 237 204 299 304 288 257 283 298 277 290 305 305 303 284 259 248 262 267 265 271 280 288 288 300 292 268 259 209 195 163 155 152 137 124 108 107 93 75 80 33 358 357 353 360 2 4 358 357 351 349 343 342 342 341 339 341 342 340 341 341 344 343 343
67 300 263 158 224 235 200 215 223 190 226 227 181 233 200 177 175 148 168 223 171 83 289 250 270 249 263 283 294 299 299 292 288 283 292 287 277 280 280 285 288 286 279 292 296 292 284 278 278 245 209 177 159 147 132 123 123 120 107 93 80 57 31 352 360 355 8 5 4 1 352 347 341 347 342 339 339 341 343 340 342 343 343 343 345 344
148 180 243 130 270 245 246 242 203 254 222 220 201 197 195 198 164 192 224 205 149 192 237 262 145 214 267 278 286 285 272 270 275 280 276 272 285 288 292 291 288 279 289 306 287 283 280 278 263 233 203 184 157 156 153 143 128 112 100 93 97 69 13 335 4 7 8 8 7 358 346 339 348 350 344 340 340 345 346 344 342 344 344 345 342 340
95 273 202 171 272 289 290 277 211 199 247 268 234 223 219 181 206 210 229 200 195 237 255 286 302 273 272 272 278 278 283 267 274 280 291 295 275 275 285 282 268 272 280 279 279 279 274 265 260 236 191 171 176 165 162 155 145 128 111 87 101 70 7 2 14 11 5 10 4 354 346 345 350 351 346 344 344 345 342 339 340 341 344 340 336 335
107 274 107 143 345 295 292 296 127 195 185 253 247 233 218 218 228 230 248 244 233 281 270 278 283 284 278 262 253 268 286 304 311 286 261 259 280 285 282 275 272 271 271 272 274 276 270 270 264 231 190 187 180 176 166 163 148 133 107 93 112 83 343 32 17 11 10 6 6 357 351 349 348 348 349 344 338 339 340 343 338 342 340 338 335 334
23 255 50 71 355 305 297 45 272 4 253 251 280 246 214 191 226 215 207 212 171 227 205 8 278 257 272 340 255 269 304 286 257 282 304 298 290 286 272 269 270 269 266 267 273 286 294 283 257 218 210 189 178 164 159 156 144 131 110 141 122 135 77 48 16 19 5 15 4 6 356 345 341 347 347 345 343 341 339 339 340 341 339 337 340 337
152 125 132 62 335 259 262 31 304 319 325 315 275 231 193 204 201 307 269 231 213 165 193 232 236 223 238 268 312 286 257 277 287 264 279 292 277 252 252 262 267 269 261 257 266 281 281 272 245 221 193 167 166 163 172 149 136 133 164 147 161 134 77 28 26 20 20 14 6 7 354 344 343 342 345 347 338 340 336 341 342 343 341 341 333 324
55 100 144 193 199 257 282 322 287 10 4 235 216 159 147 178 196 213 235 218 211 175 216 200 241 255 274 273 235 267 288 269 268 268 220 248 281 287 278 262 255 261 270 268 254 253 270 270 252 219 180 170 159 151 144 137 135 152 163 149 130 93 76 40 23 37 14 11 8 6 350 343 341 340 341 341 337 338 340 343 346 336 333 329 332 334
126 80 146 143 142 275 316 349 33 309 235 238 270 241 171 131 176 201 235 245 213 215 244 270 264 262 252 234 245 255 259 277 290 284 291 267 235 245 258 278 276 255 252 267 282 272 252 247 225 157 140 145 143 136 124 112 127 137 112 130 120 112 71 41 58 27 12 1 4 2 352 343 343 338 339 340 338 336 338 343 340 338 338 336 334 334
148 128 181 269 169 343 33 29 25 241 237 275 318 20 167 99 136 176 276 248 235 210 215 235 251 256 273 276 269 250 261 287 305 266 251 264 226 231 245 247 246 236 258 255 252 272 264 232 209 195 178 150 135 139 135 141 146 132 127 132 128 106 66 74 52 14 5 359 357 3 350 349 343 338 336 339 335 328 323 330 338 334 335 332 327 322
144 103 105 278 129 214 215 173 242 307 332 28 353 232 177 168 174 159 292 288 213 207 190 223 250 266 275 271 267 287 300 320 322 307 262 242 258 233 220 230 219 233 239 264 241 258 248 227 191 157 131 142 141 141 142 144 138 132 128 126 136 104 74 64 26 3 358 345 355 354 356 356 344 335 333 331 330 326 324 331 330 333 336 324 330 331
55 126 236 127 295 124 206 328 339 9 328 276 240 302 154 192 137 174 99 292 280 230 199 200 238 255 269 274 283 290 7 23 321 292 277 280 250 258 259 251 273 268 263 270 294 259 202 137 103 121 136 140 141 145 143 143 140 137 141 159 144 100 90 55 353 353 342 343 349 352 358 1 346 335 328 324 327 321 313 314 320 323 332 319 325 326
37 81 107 135 183 39 52 160 235 190 249 203 233 224 219 165 140 142 66 290 273 217 190 181 223 245 238 250 278 70 55 330 272 271 279 274 281 242 242 264 264 269 272 258 244 233 214 191 144 136 127 137 144 163 151 147 143 142 164 172 152 130 115 9 318 342 338 336 345 351 1 350 348 341 328 313 318 317 313 320 317 309 316 314 311 308
47 349 31 37 151 191 131 142 255 210 238 278 228 231 201 192 118 73 359 286 260 222 178 172 206 224 231 229 158 158 176 262 277 277 238 240 250 278 222 257 285 289 286 270 251 228 192 147 117 125 149 166 175 160 155 148 148 160 170 179 157 142 175 212 253 321 336 339 344 351 351 349 341 341 326 310 313 315 309 309 313 320 319 313 311 311
126 296 105 209 175 200 183 273 312 288 267 244 224 184 190 190 140 56 273 245 235 195 189 181 203 214 191 160 168 211 225 212 245 267 319 310 335 300 270 242 248 261 267 278 258 167 156 172 168 172 183 180 158 157 155 155 151 173 181 174 159 186 187 173 147 34 355 337 337 343 343 336 332 321 309 301 303 303 301 305 307 317 318 319 320 320
299 123 339 81 145 184 193 196 241 260 245 168 315 160 181 108 301 210 237 207 154 205 199 194 204 223 176 189 191 219 242 243 264 297 299 292 270 265 278 279 280 278 253 261 224 188 165 155 149 122 133 153 157 158 159 156 168 178 180 174 199 188 152 139 103 66 2 337 330 326 323 311 316 304 295 302 307 310 305 302 302 299 308 307 317 330
189 144 202 181 194 67 52 24 343 314 292 121 128 86 176 137 232 208 200 253 200 181 175 212 213 237 166 231 228 236 261 276 271 279 288 294 295 285 284 288 286 286 281 252 239 218 170 169 182 182 175 164 162 161 167 162 173 185 179 202 200 154 141 122 101 62 7 336 327 322 313 307 310 311 317 313 305 307 311 311 319 327 324 329 335 341
196 150 231 249 186 148 168 174 207 211 196 187 151 178 209 214 197 184 125 277 213 180 182 205 229 222 202 210 242 256 252 259 290 275 285 286 273 271 268 266 271 277 273 249 239 214 180 189 173 172 168 165 167 171 174 171 180 184 189 215 155 143 129 116 92 85 21 333 323 321 317 318 317 304 310 302 310 309 314 325 326 324 327 336 341 343
202 191 178 169 203 160 194 213 238 233 194 203 212 221 204 238 272 174 142 243 220 257 197 175 232 223 206 212 232 237 273 262 254 269 270 272 281 277 277 276 269 265 261 260 256 209 183 189 181 169 171 179 178 184 183 186 179 176 204 199 152 158 146 132 116 101 27 324 320 321 314 319 315 318 323 319 310 316 321 328 349 342 338 340 346 348
299 189 190 76 242 268 263 228 240 254 215 243 251 251 263 269 271 193 235 269 243 220 185 207 225 219 220 206 221 257 229 260 276 281 266 265 264 270 269 280 280 263 258 259 261 202 190 157 152 164 178 192 193 191 190 192 171 179 217 163 162 148 143 135 133 136 217 281 309 309 325 329 323 334 343 330 320 301 286 295 316 329 324 331 334 340
238 162 158 213 266 29 278 296 212 239 248 231 236 255 259 249 246 215 245 235 261 249 233 233 234 238 230 197 206 237 260 257 258 263 257 265 267 266 270 266 269 263 265 260 243 166 149 152 167 189 185 197 203 197 198 190 193 189 157 166 155 143 136 141 143 146 191 267 281 308 321 326 327 326 340 347 333 319 303 296 304 319 319 314 327 333
303 180 171 229 196 195 241 240 252 224 238 239 222 253 263 251 245 237 227 247 252 257 233 240 208 246 231 236 222 218 245 251 242 262 262 254 257 267 269 262 264 277 260 237 236 174 157 172 193 198 192 209 202 196 193 189 190 170 164 159 150 142 140 145 155 166 196 222 234 285 290 303 323 328 324 334 337 324 324 319 319 322 310 320 320 331
161 123 228 172 200 258 302 280 270 287 275 259 249 238 246 256 258 256 238 243 251 256 259 250 203 223 197 233 218 208 241 254 231 244 255 265 269 267 258 255 254 249 263 266 225 176 190 192 203 206 195 212 193 187 188 191 183 168 165 157 155 151 152 159 161 160 195 221 185 235 225 256 294 306 323 323 325 281 259 278 297 301 295 256 226 233
100 229 198 87 280 267 237 250 129 267 279 293 266 231 232 237 222 248 267 254 239 239 246 254 257 218 227 230 224 209 227 254 249 238 250 251 256 260 263 261 260 262 262 250 216 192 198 198 203 202 204 208 185 184 188 188 184 169 166 145 155 160 161 162 153 165 192 192 180 195 196 234 277 299 312 326 328 329 324 264 269 268 264 290 295 299
196 217 149 206 178 252 240 217 194 215 265 237 244 246 226 194 162 210 237 239 240 228 219 206 254 262 212 239 224 209 230 241 253 245 256 262 254 246 249 256 262 263 259 247 203 199 196 211 210 205 205 201 182 186 187 186 184 164 167 161 165 164 169 157 161 174 179 186 190 191 189 199 238 261 271 290 320 326 325 327 318 275 278 285 299 303